Location: *
(49.0044°N, 9.5056°E)
Time: 01:32:20
(UTC+00:00)

ARGOS - Pass Details

Date: 22 September 2019
Orbit: 821 x 834 km, 98.5° (Epoch: 19 October)

Event Time Altitude Azimuth Distance (km) Brightness Sun altitude
Exits shadow 17:57:46 - 117° (ESE) 2,712 5.2 -6.9°
Reaches altitude 10° 17:58:39 10° 111° (ESE) 2,426 5.0 -7.0°
Maximum altitude 18:02:53 24° 59° (ENE) 1,645 4.3 -7.7°
Drops below altitude 10° 18:07:08 10° 7° (N) 2,445 5.7 -8.4°
Sets 18:09:53 0° 355° (N) 3,385 6.6 -8.8°
